Retour au catalogue

FENGYUN 1C DEB

LostPO
NORAD 31676·DEBRIS·🇨🇳 China

Lancé May 10, 1999 depuis Taiyuan Satellite Launch Center

Loading…

Prochains Passages (prochaines 24 heures)

TLE

PériméSource: Space-Track

Époque: Aug 27, 2018, 09:06 UTC

1 31676U 99025CCJ 18239.37969797 -.00000082  00000-0 -63416-4 0  9994
2 31676  98.6003 305.4537 0414304  18.9593 342.6457 13.31380576547463

Suivez FENGYUN 1C DEB en temps réel avec AllMySat

Download on the App Store